MOLNIYA 1-56

Last updated on Sat Jun 24 2023 00:03:01 GMT+0000 (Coordinated Universal Time)

1 13890U 83019A 23173.74757331 -.00001232 00000+0 41139-3 0 9994 2 13890 62.7739 318.2873 7415233 267.5862 14.4815 2.00067419294018

Satellite not in orbit

MOLNIYA 1-56